Regional Weather Roundup
Issued by NWS

Home | Current Version | Previous Version | Text Only | Print | Product List | Glossary Off
Versions: 1 2 3 4 5 6 7 8 9 10 11 12 13 14 15 16 17 18 19 20 21 22 23 24 25 26 27 28 29 30 31 32 33 34 35 36 37 38 39 40 41 42 43 44 45 46 47 48 49 50

000
ASUS43 KDTX 210801
RWRMI
MICHIGAN HOURLY REGIONAL WEATHER ROUNDUP
NATIONAL WEATHER SERVICE DETROIT/PONTIAC MI
400 AM EDT SUN SEP 21 2014

NOTE: "FAIR" INDICATES FEW OR NO CLOUDS BELOW 12,000 FEET WITH NO
SIGNIFICANT WEATHER AND/OR OBSTRUCTION TO VISIBILITY.

MIZ047>049-052>055-059>063-066>070-074>076-081>083-210900-
SOUTHEAST LOWER MICHIGAN

CITY           SKY/WX    TMP DP  RH WIND       PRES   REMARKS
ADRIAN         CLOUDY    65  64  97 SW13      29.69F
ALMA           LGT RAIN  64  63  95 SW6       29.61F
ANN ARBOR      CLOUDY    65  62  90 SW7       29.67F
BAD AXE        CLOUDY    64  64 100 S6        29.62F FOG
CARO           CLOUDY    64  63  97 S6        29.62F FOG
DETROIT CITY   CLOUDY    67  63  87 SW12      29.67F
DETROIT        CLOUDY    65  63  93 S10       29.68F
FLINT          MOCLDY    67  62  84 S7        29.63F
GROSSE ILE     MOCLDY    66  63  88 SW8       29.67F
HILLSDALE      CLOUDY    67  67 100 SW9G16    29.68F
HOWELL         CLOUDY    65  64  96 S6        29.64F

CITY           SKY/WX    TMP DP  RH WIND       PRES   REMARKS
JACKSON        CLOUDY    66  64  93 SW12      29.65F
LAMBERTVILLE   MOCLDY    64  63  94 S10G17    29.68F
LANSING        RAIN      66  64  93 SW10      29.63F FOG
LAPEER         CLOUDY    64  62  93 S8        29.64F
MASON          CLOUDY    65  64  94 SW3       29.65F FOG
MONROE         MOCLDY    66  63  88 SW9       29.67F
MT. CLEMENS    CLOUDY    66  66 100 S8        29.65F
PONTIAC        CLOUDY    65  62  90 S6        29.65F
PORT HOPE        N/A     65  62  90 SW3       29.60F
PORT HURON     CLOUDY    64  64 100 S6        29.66F
TRI CITIES     TSTM      66  63  90 SW13G26   29.63S
TROY           CLOUDY    66  63  90 S8        29.68F
SAGINAW HB     CLOUDY    64  64 100 S8        29.60F FOG
$$
MIZ043>046-050>051-056>058-064>065-071>073-077>080-210900-
SOUTHWEST LOWER MICHIGAN

CITY           SKY/WX    TMP DP  RH WIND       PRES   REMARKS
BATTLE CREEK   CLOUDY    67  65  93 SW17      29.63F
BENTON HARBOR  CLOUDY    65  64  97 W15       29.68R FOG
BIG RAPIDS     LGT RAIN  62  62 100 W9        29.60R
COLDWATER      CLOUDY    68  67  95 S10G17    29.67F
FREMONT        DRIZZLE   60  58  96 CALM      29.62F
HOLLAND        CLOUDY    64  60  87 W12       29.64S
GRAND RAPIDS   LGT RAIN  65  64  97 SW9       29.63F
IONIA          RAIN      63  62  96 W6        29.61F
KALAMAZOO      LGT RAIN  68  66  93 SW12G20   29.65F FOG
LUDINGTON      CLOUDY    57  55  94 NW7       29.61F
MARSHALL       CLOUDY    66  64  96 S9G16     29.63F
MOUNT PLEASANT HVY RAIN  63  62  96 SW8       29.60S
MUSKEGON       CLOUDY    61  57  87 W5        29.64S
SOUTH HAVEN    CLOUDY    64  61  93 W7        29.67S
$$
MIZ016>042-210900-
NORTHERN LOWER MICHIGAN

CITY           SKY/WX    TMP DP  RH WIND       PRES   REMARKS
ALPENA         FOG       57  57 100 CALM      29.59F VSB 1/4
BEAVER ISLAND  RAIN      55  55  97 CALM      29.61F
BELLAIRE       RAIN      58  56  94 NW5       29.61R
CADILLAC       HVY RAIN  60  59  97 W8        29.58F
CHARLEVOIX     HVY RAIN  58  57  99 E5        29.64F
FRANKFORT      LGT RAIN  60  57  90 N7        29.57F
GAYLORD        CLOUDY    58  57  97 VRB3      29.58F
GRAYLING       CLOUDY    59  59 100 SE3       29.57F
HARBOR SPRINGS RAIN      57  55  92 N6        29.60F
HOUGHTON LAKE  CLOUDY    56  56 100 CALM      29.59F FOG
MANISTEE       CLOUDY    57  55  94 W6        29.58F
OSCODA         FOG       62  61  99 CALM      29.58F VSB 3/4
PELLSTON       CLOUDY    56  55  97 NW7       29.61F
ROGERS CITY    CLOUDY    56  56 100 CALM      29.61F
TRAVERSE CITY  LGT RAIN  59  55  87 E10G21    29.55F FOG
$$
MIZ007>008-015-210900-
EASTERN UPPER MICHIGAN

CITY           SKY/WX    TMP DP  RH WIND       PRES   REMARKS
KINROSS        CLOUDY    52  52 100 N7        29.62S
MACKINAC ISLAN CLOUDY    55  55  99 NE6       29.61R
NEWBERRY       CLOUDY    51  51  99 N12       29.63S
S. S. MARIE    CLOUDY    54  51  90 N3        29.61F
$$
MIZ004>006-011>014-085-210900-
CENTRAL UPPER MICHIGAN

CITY           SKY/WX    TMP DP  RH WIND       PRES   REMARKS
MANISTIQUE     CLOUDY    51  51  99 NW5       29.63F
ESCANABA       CLOUDY    54  52  94 NW3       29.66S
MENOMINEE      CLOUDY    55  52  88 N5        29.63F
SAWYER-GWINN   RAIN      50  49  93 N12       29.68R
$$
MIZ001>003-009>011-084-210900-
WESTERN UPPER MICHIGAN

CITY           SKY/WX    TMP DP  RH WIND       PRES   REMARKS
IRON MOUNTAIN  LGT RAIN  54  51  90 N6        29.67S
HOUGHTON       CLOUDY    51  47  86 NE8       29.73R
COPPER HARBOR    N/A     49  46  90 NE14      29.74R
IRONWOOD       CLOUDY    52  52 100 N8        29.71R
$$

ABBREVIATIONS USED IN REMARKS
   TC - TEMPERATURE IN CELSIUS
  WCI - WIND CHILL INDEX
   HX - HEAT INDEX
  VSB - VISIBILITY




USA.gov is the U.S. government's official web portal to all federal, state and local government web resources and services.